Date String (YYYY-MM-DD hh:mm:ss) UTC,Instrument flags,Ambient pressure (hPa),Sample flow (lpm),Bypass flow (lpm),Sample temperature (°C),Ambient temperature (°C),ASC tube jacket temperature (°C),LED temperature (°C),Box temperature (°C),Sample RH (%),Span deviation,Mass concentration (μg/m³),Mass concentration (μg/m³),Mass concentration (μg/m³)
DateTimeUTC,F1_M11,P_M11,Q1_M11,Q2_M11,T1_M11,T2_M11,T3_M11,T4_M11,T5_M11,U1_M11,ZSPAN_M11,X0_M11,X2_M11,X1_M11
2022-02-24 21:00:00,,0821.4,5.00,0.00,22.6,21.9,00.0,31.5,24.4,05.8,0000.7,0014.18,0007.94,0007.23
2022-02-24 21:01:00,,0821.4,5.00,0.00,22.6,21.9,00.0,31.5,24.5,05.8,0000.8,0014.21,0007.98,0007.27
2022-02-24 21:02:00,,0821.4,5.01,0.00,22.6,21.9,00.0,31.5,24.4,05.9,0001.1,0013.91,0007.99,0007.29
2022-02-24 21:03:00,,0821.4,4.99,0.00,22.6,21.9,00.0,31.5,24.4,05.8,0001.2,0013.06,0007.98,0007.30
2022-02-24 21:04:00,,0821.4,5.02,0.00,22.6,21.9,00.0,31.5,24.4,05.7,0000.6,0012.84,0008.02,0007.33
2022-02-24 21:05:00,,0821.4,4.99,0.00,22.6,21.9,00.0,31.5,24.4,05.7,0000.6,0012.25,0008.02,0007.37
2022-02-24 21:06:00,,0821.4,4.99,0.00,22.6,21.9,00.0,31.5,24.4,05.9,0000.8,0011.98,0008.01,0007.40
2022-02-24 21:07:00,,0821.4,5.00,0.00,22.6,21.9,00.0,31.5,24.4,05.9,0001.1,0012.34,0008.05,0007.42
2022-02-24 21:08:00,,0821.4,5.00,0.00,22.6,21.9,00.0,31.5,24.5,05.8,0001.3,0012.26,0008.06,0007.44
2022-02-24 21:09:00,,0821.4,5.00,0.00,22.6,21.9,00.0,31.5,24.5,05.8,0001.3,0012.32,0008.05,0007.45
2022-02-24 21:10:00,,0821.4,5.02,0.00,22.6,21.9,00.0,31.5,24.5,06.1,0001.5,0012.66,0008.06,0007.42
2022-02-24 21:11:00,,0821.4,5.00,0.00,22.6,21.9,00.0,31.5,24.4,06.1,0001.3,0012.81,0008.10,0007.42
2022-02-24 21:12:00,,0821.4,5.00,0.00,22.6,21.9,00.0,31.5,24.4,05.9,0001.2,0012.86,0008.09,0007.41
2022-02-24 21:13:00,,0821.4,5.00,0.00,22.6,21.9,00.0,31.5,24.5,06.0,0001.4,0012.77,0008.08,0007.41
2022-02-24 21:14:00,,0821.4,4.99,0.00,22.6,21.9,00.0,31.5,24.5,05.8,0001.2,0012.67,0008.07,0007.41
2022-02-24 21:15:00,,0821.4,5.00,0.00,22.7,22.0,00.0,31.5,24.5,05.8,0002.0,0012.67,0008.06,0007.41
2022-02-24 21:16:00,,0821.4,5.00,0.00,22.7,22.0,00.0,31.5,24.6,05.9,0002.4,0012.64,0008.04,0007.41
2022-02-24 21:17:00,,0821.4,5.01,0.00,22.7,22.0,00.0,31.5,24.6,06.0,0002.3,0012.68,0008.06,0007.41
2022-02-24 21:18:00,,0821.4,4.99,0.00,22.7,22.0,00.0,31.5,24.5,06.1,0001.9,0012.28,0008.05,0007.40
2022-02-24 21:19:00,,0821.3,4.99,0.00,22.7,21.9,00.0,31.6,24.5,05.9,0001.9,0012.42,0008.07,0007.42
2022-02-24 21:20:00,,0821.4,5.00,0.00,22.7,21.9,00.0,31.6,24.5,05.9,0001.9,0012.38,0008.09,0007.43
2022-02-24 21:21:00,,0821.4,5.01,0.00,22.7,21.9,00.0,31.5,24.5,06.1,0001.3,0012.26,0008.15,0007.47
2022-02-24 21:22:00,,0821.4,5.01,0.00,22.7,21.9,00.0,31.6,24.5,06.1,0000.7,0012.64,0008.10,0007.46
2022-02-24 21:23:00,,0821.4,5.00,0.00,22.7,21.9,00.0,31.6,24.5,06.2,0000.3,0012.69,0008.11,0007.47
2022-02-24 21:24:00,,0821.4,5.00,0.00,22.7,21.9,00.0,31.6,24.5,06.2,-000.2,0013.18,0008.10,0007.47
2022-02-24 21:25:00,,0821.4,5.00,0.00,22.7,22.0,00.0,31.6,24.5,06.2,0000.1,0013.36,0008.13,0007.45
2022-02-24 21:26:00,,0821.4,5.00,0.00,22.7,21.9,00.0,31.6,24.5,06.1,-000.2,0013.30,0008.11,0007.44
2022-02-24 21:27:00,,0821.4,5.01,0.00,22.7,22.0,00.0,31.6,24.5,06.0,-000.7,0014.03,0008.13,0007.46
2022-02-24 21:28:00,,0821.4,4.99,0.00,22.7,21.9,00.0,31.6,24.5,06.0,-000.8,0014.06,0008.16,0007.47
2022-02-24 21:29:00,,0821.4,5.01,0.00,22.7,22.0,00.0,31.6,24.5,06.0,-000.5,0014.07,0008.20,0007.48
2022-02-24 21:30:00,,0821.4,5.00,0.00,22.7,22.0,00.0,31.6,24.5,06.1,-000.6,0014.62,0008.19,0007.46
2022-02-24 21:31:00,,0821.5,5.00,0.00,22.7,22.0,00.0,31.6,24.5,06.1,-000.6,0014.50,0008.15,0007.44
2022-02-24 21:32:00,,0821.6,4.99,0.00,22.7,21.9,00.0,31.6,24.4,06.1,-000.3,0014.32,0008.05,0007.38
2022-02-24 21:33:00,,0821.7,4.99,0.00,22.6,21.9,00.0,31.6,24.4,06.0,0000.2,0013.99,0008.01,0007.35
2022-02-24 21:34:00,,0821.7,5.00,0.00,22.6,21.9,00.0,31.6,24.5,06.1,0000.2,0013.81,0007.94,0007.31
2022-02-24 21:35:00,,0821.7,5.00,0.00,22.6,21.9,00.0,31.6,24.5,06.1,0000.2,0013.24,0007.91,0007.29
2022-02-24 21:36:00,,0821.7,5.01,0.00,22.6,21.9,00.0,31.6,24.5,06.0,0000.7,0013.06,0007.87,0007.27
2022-02-24 21:37:00,,0821.7,5.01,0.00,22.7,21.9,00.0,31.6,24.5,06.1,0001.4,0013.03,0007.86,0007.24
2022-02-24 21:38:00,,0821.7,5.00,0.00,22.7,21.9,00.0,31.6,24.5,06.0,0001.5,0012.52,0007.80,0007.18
2022-02-24 21:39:00,,0821.6,4.99,0.00,22.6,21.9,00.0,31.6,24.5,06.0,0001.9,0012.51,0007.75,0007.14
2022-02-24 21:40:00,,0821.6,5.01,0.00,22.7,21.9,00.0,31.6,24.5,06.0,0002.0,0012.42,0007.69,0007.10
2022-02-24 21:41:00,,0821.6,5.02,0.00,22.7,21.9,00.0,31.6,24.5,06.0,0002.0,0012.40,0007.64,0007.08
2022-02-24 21:42:00,,0821.6,4.99,0.00,22.7,22.0,00.0,31.6,24.5,06.1,0002.0,0012.85,0007.66,0007.07
2022-02-24 21:43:00,,0821.7,5.00,0.00,22.7,22.0,00.0,31.6,24.5,06.2,0002.1,0012.88,0007.68,0007.06
2022-02-24 21:44:00,,0821.7,5.00,0.00,22.6,21.9,00.0,31.6,24.4,06.1,0002.0,0012.70,0007.67,0007.05
2022-02-24 21:45:00,,0821.8,5.01,0.00,22.6,21.9,00.0,31.6,24.4,06.2,0002.6,0012.83,0007.71,0007.06
2022-02-24 21:46:00,,0821.7,4.99,0.00,22.6,21.9,00.0,31.6,24.3,06.1,0002.7,0012.79,0007.70,0007.04
2022-02-24 21:47:00,,0821.8,4.99,0.00,22.6,21.9,00.0,31.6,24.3,06.1,0002.6,0012.72,0007.66,0007.02
2022-02-24 21:48:00,,0821.9,5.00,0.00,22.6,21.8,00.0,31.6,24.3,06.1,0001.9,0012.78,0007.65,0007.01
2022-02-24 21:49:00,,0821.8,5.00,0.00,22.6,21.8,00.0,31.6,24.3,06.2,0001.8,0012.69,0007.66,0007.01
2022-02-24 21:50:00,,0821.7,5.01,0.00,22.6,21.8,00.0,31.6,24.4,06.2,0001.8,0012.29,0007.63,0007.00
2022-02-24 21:51:00,,0821.8,5.01,0.00,22.6,21.8,00.0,31.6,24.4,06.2,0001.7,0012.45,0007.63,0006.98
2022-02-24 21:52:00,,0821.8,4.99,0.00,22.6,21.8,00.0,31.5,24.4,06.3,0001.9,0011.91,0007.64,0006.98
2022-02-24 21:53:00,,0821.9,5.01,0.00,22.6,21.8,00.0,31.5,24.3,06.3,0001.4,0011.58,0007.65,0006.97
2022-02-24 21:54:00,,0821.8,5.00,0.00,22.5,21.8,00.0,31.5,24.3,06.2,0000.9,0011.43,0007.61,0006.96
2022-02-24 21:55:00,,0822.0,4.99,0.00,22.5,21.8,00.0,31.5,24.4,06.3,0000.7,0011.43,0007.62,0006.94
2022-02-24 21:56:00,,0822.1,4.99,0.00,22.6,21.8,00.0,31.5,24.4,06.3,0000.8,0011.46,0007.60,0006.93
2022-02-24 21:57:00,,0822.1,5.00,0.00,22.6,21.8,00.0,31.5,24.4,06.3,0000.6,0011.65,0007.61,0006.93
2022-02-24 21:58:00,,0821.9,5.00,0.00,22.6,21.9,00.0,31.5,24.4,06.3,0000.2,0011.95,0007.65,0006.95
2022-02-24 21:59:00,,0822.0,5.01,0.00,22.6,21.9,00.0,31.5,24.4,06.3,0000.6,0013.10,0007.70,0006.94
